Location: Long Geng
(2.6167°N, 114.1333°E)
Time: 20:45:23
(UTC+00:00)

Ariane 44LP R/B - Pass Details

Date: 21 September 2021
Orbit: 477 x 17832 km, 3.6° (Epoch: 19 October)

Event Time Altitude Azimuth Distance (km) Brightness Sun altitude
Rises 14:55:40 0° 265° (W) 12,138 10.4 -69.6°
Reaches altitude 10° 15:09:47 10° 262° (W) 7,818 9.2 -73.1°
Enters shadow 15:17:48 21° 259° (WSW) 4,854 8.0 -75.0°
